984  
SXUS52 KCHS 232327  
OSOCHS  
 
MARINE OBSERVATIONS  
NATIONAL WEATHER SERVICE CHARLESTON SC  
700 PM EDT SUN SEP 23 2018  
   
..DOWNTOWN CHARLESTON AND HARBOR
 
 
 
CITY SKY/WX TMP DP RH WIND PRES REMARKS  
WATERFRONT PRK N/A 79 73 82 VRB3 29.89S  
   
..LAKE MOULTRIE
 
 
 
CITY SKY/WX TMP DP RH WIND PRES REMARKS  
PINOPOLIS N/A 81 75 83 CALM 29.99R  
   
..LAKE AND SUPPLEMENTAL COASTAL OBSERVATIONS
 
 
 
STATION/POSITION TIME TEMP WIND PRES WAVE SWELL  
AIR SEA DIR/SP/G HT/PER HT/PER/DIR  
(UTC) (F) (DEG/KT/KT) (MB) (FT/S) (FT/S/D)  
FORT PULASKI 2300 80 83 60/ 6/ 8 1017.5  
SAPELO ISLAND 2300 80 70/ 7 1016.0  
WINYAH BAY 2245 81 110/ 5 1018.0S  
LAKE MURRAY 2250 84 80/ 4/ 6 1016.6R  
ACE BASIN NERRS 2245 76 140/ 3 1018.0R  
 
   
..C-MAN AND BUOY OBSERVATIONS
 
 
 
STATION/POSITION TIME TEMP WIND PRES WAVE SWELL  
AIR SEA DIR/SP/G HT/PER HT/PER/DIR  
(UTC) (F) (DEG/KT/KT) (MB) (FT/S) (FT/S/D)  
BUOY 41004 2310 81 83 80/ 10/ 12 1017.4  
BUOY 41008 2250 81 84 40/ 10/ 12 1016.7R 3/11 3/100/11  
FOLLY BEACH CMAN 2300 80 90/ 7/ 8 1018.2R  
PRITCHARDS ISLAN NOT AVBL  
CAPERS NS BUOY 2308 82 83 90/ 8/ 14 1017.0R  
FRIPP NS BUOY 2308 77 83 20/ 2/ 6 1016.8F  
5E ST. MARYS GA 2300 86 N/A 3/ 9 2/ 90/12  
 
 
STATION/POSITION TIME TEMP WIND PRES WAVE SWELL  
AIR SEA DIR/SP/G HT/PER HT/PER/DIR  
(UTC) (F) (DEG/KT/KT) (MB) (FT/S) (FT/S/D)  
FRYING PAN BUOY 2310 80 82 90/ 10/ 12 1017.9  
BUOY 41025 2310 80 80 70/ 2/ 4 1019.2  
CAPE LOOKOUT NC 2300 90/ 10/ 11 1018.7R  
BUOY 41002 2310 83 60/ 12/ 14 1016.6  
BUOY 41010 2310 83 85 70/ 12/ 14 1015.5  
ST AUGUSTINE FL 2300 82 83 100/ 9/ 11 1016.3R  
 

 
 
 
CLICK HERE TO GO TO PREVIOUS BULLETINS.

The Nexlab SC Page
The Nexlab GA Page Main Text Page